time, Switch, Flow(0), Analog(2)
yyyy/mm/dd HH:MM:SS.fff, True=FILTERED|False=TOTAL, L/min, V
2023/06/24 00:00:00.102, True, 5.223, 0.134508
2023/06/24 00:00:00.598, True, 4.718, 0.134890
2023/06/24 00:00:01.094, True, 4.717, 0.131380
2023/06/24 00:00:01.598, True, 4.643, 0.136950
2023/06/24 00:00:02.102, True, 4.642, 0.133135
2023/06/24 00:00:02.598, True, 4.717, 0.133516
2023/06/24 00:00:03.102, True, 4.642, 0.132830
2023/06/24 00:00:03.606, True, 3.979, 0.132372
2023/06/24 00:00:04.102, True, 3.033, 0.134661
2023/06/24 00:00:04.605, True, 2.321, 0.136110
2023/06/24 00:00:05.110, True, 1.990, 0.133211
2023/06/24 00:00:05.606, True, 2.022, 0.135119
2023/06/24 00:00:06.110, True, 1.990, 0.136263
2023/06/24 00:00:06.614, True, 1.990, 0.134279
2023/06/24 00:00:07.109, True, 2.024, 0.135271
2023/06/24 00:00:07.614, True, 1.988, 0.135424
2023/06/24 00:00:08.118, True, 1.991, 0.134585
2023/06/24 00:00:08.614, True, 2.020, 0.134203
2023/06/24 00:00:09.118, True, 1.991, 0.134127
2023/06/24 00:00:09.622, True, 1.988, 0.133898
2023/06/24 00:00:10.118, True, 1.685, 0.135271
2023/06/24 00:00:10.622, True, 1.990, 0.136110
2023/06/24 00:00:11.126, True, 1.989, 0.134890
2023/06/24 00:00:11.622, True, 2.022, 0.136034
2023/06/24 00:00:12.126, True, 1.989, 0.132372
2023/06/24 00:00:12.630, True, 1.990, 0.133593
2023/06/24 00:00:13.126, True, 2.022, 0.134356
2023/06/24 00:00:13.630, True, 1.990, 0.132677
2023/06/24 00:00:14.126, True, 2.022, 0.131838
2023/06/24 00:00:14.630, True, 1.989, 0.133898
2023/06/24 00:00:15.133, True, 1.990, 0.135424
2023/06/24 00:00:15.630, True, 2.022, 0.135119
2023/06/24 00:00:16.134, True, 1.990, 0.134279
2023/06/24 00:00:16.638, True, 1.989, 0.133288
2023/06/24 00:00:17.142, True, 1.990, 0.136492
2023/06/24 00:00:17.638, True, 2.022, 0.134508
2023/06/24 00:00:18.141, True, 1.988, 0.134127
2023/06/24 00:00:18.646, True, 1.990, 0.135805
2023/06/24 00:00:19.142, True, 2.022, 0.133211
2023/06/24 00:00:19.646, True, 1.658, 0.137484
2023/06/24 00:00:20.150, True, 1.990, 0.133898
2023/06/24 00:00:20.646, True, 2.022, 0.135042
2023/06/24 00:00:21.150, True, 1.990, 0.135119
2023/06/24 00:00:21.654, True, 2.321, 0.135805
2023/06/24 00:00:22.149, True, 1.685, 0.135500
2023/06/24 00:00:22.654, True, 2.321, 0.134127
2023/06/24 00:00:23.149, True, 1.685, 0.134051
2023/06/24 00:00:23.653, True, 1.990, 0.132525
2023/06/24 00:00:24.158, True, 1.989, 0.134432
2023/06/24 00:00:24.654, True, 2.022, 0.134813
2023/06/24 00:00:25.158, True, 1.989, 0.133745
2023/06/24 00:00:25.662, True, 1.992, 0.135729
2023/06/24 00:00:26.158, True, 2.019, 0.133288
2023/06/24 00:00:26.662, True, 1.990, 0.133288
2023/06/24 00:00:27.166, True, 1.990, 0.134737
2023/06/24 00:00:27.662, True, 1.687, 0.134279
2023/06/24 00:00:28.166, True, 1.989, 0.132982
2023/06/24 00:00:28.670, True, 2.319, 0.137636
2023/06/24 00:00:29.166, True, 2.022, 0.133822
2023/06/24 00:00:29.670, True, 1.659, 0.134890
2023/06/24 00:00:30.174, True, 1.992, 0.134127
2023/06/24 00:00:30.670, True, 2.019, 0.135500
2023/06/24 00:00:31.174, True, 1.990, 0.134661
2023/06/24 00:00:31.678, True, 1.990, 0.134356
2023/06/24 00:00:32.182, True, 1.989, 0.136034
2023/06/24 00:00:32.678, True, 2.021, 0.134813
2023/06/24 00:00:33.182, True, 1.991, 0.135119
2023/06/24 00:00:33.686, True, 1.990, 0.134585
2023/06/24 00:00:34.182, True, 2.021, 0.134051
2023/06/24 00:00:34.686, True, 1.657, 0.135729
2023/06/24 00:00:35.189, True, 1.993, 0.136416
2023/06/24 00:00:35.686, True, 2.018, 0.137560
2023/06/24 00:00:36.190, True, 1.992, 0.136263
2023/06/24 00:00:36.694, True, 1.656, 0.137102
2023/06/24 00:00:37.190, True, 2.022, 0.137484
2023/06/24 00:00:37.694, True, 1.990, 0.137865
2023/06/24 00:00:38.198, True, 1.990, 0.138705
2023/06/24 00:00:38.694, True, 2.022, 0.138247
2023/06/24 00:00:39.198, True, 1.990, 0.138170
2023/06/24 00:00:39.702, True, 1.989, 0.140230
2023/06/24 00:00:40.198, True, 1.685, 0.142824
2023/06/24 00:00:40.702, True, 1.990, 0.141451
2023/06/24 00:00:41.206, True, 1.990, 0.140536
2023/06/24 00:00:41.702, True, 2.022, 0.142367
2023/06/24 00:00:42.206, True, 1.990, 0.143282
2023/06/24 00:00:42.710, True, 1.658, 0.143435
2023/06/24 00:00:43.206, True, 2.022, 0.142138
2023/06/24 00:00:43.710, True, 1.990, 0.142901
2023/06/24 00:00:44.206, True, 2.022, 0.144045
2023/06/24 00:00:44.710, True, 1.990, 0.145800
2023/06/24 00:00:45.214, True, 1.990, 0.143206
2023/06/24 00:00:45.710, True, 2.022, 0.144045
2023/06/24 00:00:46.214, True, 1.990, 0.144045
2023/06/24 00:00:46.718, True, 1.992, 0.142519
2023/06/24 00:00:47.214, True, 1.683, 0.144732
2023/06/24 00:00:47.718, True, 1.988, 0.144808
2023/06/24 00:00:48.222, True, 1.990, 0.144198
2023/06/24 00:00:48.726, True, 1.989, 0.146029
2023/06/24 00:00:49.222, True, 2.022, 0.144350
2023/06/24 00:00:49.726, True, 1.658, 0.146715
2023/06/24 00:00:50.230, True, 1.990, 0.144656
2023/06/24 00:00:50.726, True, 2.021, 0.145724
2023/06/24 00:00:51.230, True, 1.990, 0.146944
2023/06/24 00:00:51.726, True, 2.022, 0.148013
2023/06/24 00:00:52.230, True, 1.990, 0.146563
2023/06/24 00:00:52.734, True, 1.990, 0.146334
2023/06/24 00:00:53.230, True, 2.022, 0.146563
2023/06/24 00:00:53.734, True, 1.658, 0.145571
2023/06/24 00:00:54.238, True, 1.990, 0.147173
2023/06/24 00:00:54.734, True, 2.022, 0.147631
2023/06/24 00:00:55.238, True, 1.989, 0.146715
2023/06/24 00:00:55.742, True, 1.990, 0.146639
2023/06/24 00:00:56.238, True, 2.022, 0.146563
2023/06/24 00:00:56.742, True, 1.658, 0.148470
2023/06/24 00:00:57.246, True, 1.990, 0.146792
2023/06/24 00:00:57.742, True, 2.022, 0.146181
2023/06/24 00:00:58.246, True, 1.658, 0.146944
2023/06/24 00:00:58.750, True, 1.989, 0.145266
2023/06/24 00:00:59.246, True, 2.022, 0.147402
2023/06/24 00:00:59.750, True, 1.990, 0.144961
2023/06/24 00:01:00.246, True, 2.022, 0.145953
2023/06/24 00:01:00.750, True, 1.658, 0.147097
2023/06/24 00:01:01.254, True, 1.990, 0.149538
2023/06/24 00:01:01.750, True, 2.022, 0.146410
2023/06/24 00:01:02.254, True, 1.990, 0.147250
2023/06/24 00:01:02.758, True, 1.658, 0.148241
2023/06/24 00:01:03.254, True, 2.022, 0.147631
2023/06/24 00:01:03.758, True, 1.990, 0.145571
2023/06/24 00:01:04.261, True, 1.990, 0.148089
2023/06/24 00:01:04.758, True, 2.022, 0.147402
2023/06/24 00:01:05.261, True, 1.658, 0.144808
2023/06/24 00:01:05.766, True, 1.990, 0.146334
2023/06/24 00:01:06.262, True, 2.022, 0.147402
2023/06/24 00:01:06.766, True, 1.990, 0.146181
2023/06/24 00:01:07.262, True, 2.022, 0.147784
2023/06/24 00:01:07.766, True, 1.990, 0.146487
2023/06/24 00:01:08.270, True, 1.990, 0.147402
2023/06/24 00:01:08.774, True, 1.989, 0.146410
2023/06/24 00:01:09.270, True, 1.685, 0.146487
2023/06/24 00:01:09.774, True, 1.990, 0.148318
2023/06/24 00:01:10.278, True, 1.990, 0.147478
2023/06/24 00:01:10.774, True, 2.022, 0.147478
2023/06/24 00:01:11.278, True, 1.990, 0.147021
2023/06/24 00:01:11.782, True, 1.990, 0.147784
2023/06/24 00:01:12.278, True, 1.685, 0.148241
2023/06/24 00:01:12.782, True, 1.990, 0.144884
2023/06/24 00:01:13.278, True, 2.020, 0.147402
2023/06/24 00:01:13.782, True, 1.990, 0.146639
2023/06/24 00:01:14.286, True, 1.989, 0.148241
2023/06/24 00:01:14.782, True, 1.685, 0.146258
2023/06/24 00:01:15.286, True, 1.990, 0.144579
2023/06/24 00:01:15.790, True, 1.990, 0.145037
2023/06/24 00:01:16.286, True, 1.685, 0.146487
2023/06/24 00:01:16.790, True, 1.990, 0.145647
2023/06/24 00:01:17.294, True, 1.991, 0.146944
2023/06/24 00:01:17.790, True, 2.020, 0.145876
2023/06/24 00:01:18.294, True, 1.658, 0.147097
2023/06/24 00:01:18.798, True, 1.990, 0.144884
2023/06/24 00:01:19.294, True, 2.022, 0.145113
2023/06/24 00:01:19.798, True, 1.989, 0.145724
2023/06/24 00:01:20.302, True, 1.990, 0.146487
2023/06/24 00:01:20.798, True, 2.022, 0.145571
2023/06/24 00:01:21.302, True, 1.993, 0.145953
2023/06/24 00:01:21.806, True, 1.986, 0.146105
2023/06/24 00:01:22.302, True, 2.022, 0.146258
2023/06/24 00:01:22.806, True, 1.990, 0.145953
2023/06/24 00:01:23.302, True, 1.685, 0.146487
2023/06/24 00:01:23.806, True, 1.990, 0.145571
2023/06/24 00:01:24.309, True, 1.658, 0.146410
2023/06/24 00:01:24.806, True, 2.022, 0.145495
2023/06/24 00:01:25.310, True, 1.990, 0.145724
2023/06/24 00:01:25.814, True, 1.990, 0.145418
2023/06/24 00:01:26.318, True, 1.990, 0.147555
2023/06/24 00:01:26.814, True, 2.022, 0.149004
2023/06/24 00:01:27.318, True, 1.990, 0.146334
2023/06/24 00:01:27.822, True, 1.990, 0.145495
2023/06/24 00:01:28.318, True, 2.022, 0.144121
2023/06/24 00:01:28.822, True, 1.990, 0.143282
2023/06/24 00:01:29.326, True, 1.658, 0.144503
2023/06/24 00:01:29.822, True, 2.022, 0.145342
2023/06/24 00:01:30.326, True, 1.658, 0.146868
2023/06/24 00:01:30.830, True, 1.990, 0.144198
2023/06/24 00:01:31.326, True, 2.021, 0.143359
2023/06/24 00:01:31.830, True, 1.990, 0.146410
2023/06/24 00:01:32.334, True, 1.990, 0.146868
2023/06/24 00:01:32.830, True, 2.022, 0.145571
2023/06/24 00:01:33.334, True, 1.990, 0.144198
2023/06/24 00:01:33.838, True, 1.990, 0.147784
2023/06/24 00:01:34.334, True, 2.022, 0.145876
2023/06/24 00:01:34.838, True, 1.989, 0.146792
2023/06/24 00:01:35.342, True, 1.990, 0.143740
2023/06/24 00:01:35.846, True, 1.990, 0.145418
2023/06/24 00:01:36.341, True, 2.020, 0.146944
2023/06/24 00:01:36.846, True, 1.990, 0.146181
2023/06/24 00:01:37.350, True, 1.989, 0.147326
2023/06/24 00:01:37.846, True, 2.023, 0.147326
2023/06/24 00:01:38.350, True, 1.990, 0.143969
2023/06/24 00:01:38.846, True, 2.022, 0.144045
2023/06/24 00:01:39.350, True, 1.988, 0.143587
2023/06/24 00:01:39.854, True, 1.991, 0.146105
2023/06/24 00:01:40.350, True, 2.022, 0.146868
2023/06/24 00:01:40.854, True, 1.988, 0.145113
2023/06/24 00:01:41.358, True, 1.991, 0.142901
2023/06/24 00:01:41.854, True, 2.021, 0.144656
2023/06/24 00:01:42.358, True, 1.988, 0.143359
2023/06/24 00:01:42.862, True, 1.992, 0.144884
2023/06/24 00:01:43.358, True, 2.022, 0.144121
2023/06/24 00:01:43.862, True, 1.656, 0.145876
2023/06/24 00:01:44.366, True, 1.990, 0.143816
2023/06/24 00:01:44.862, True, 2.022, 0.145037
2023/06/24 00:01:45.365, True, 1.989, 0.145113
2023/06/24 00:01:45.861, True, 2.022, 0.147631
2023/06/24 00:01:46.366, True, 1.993, 0.142519
2023/06/24 00:01:46.869, True, 1.987, 0.144732
2023/06/24 00:01:47.366, True, 1.684, 0.147250
2023/06/24 00:01:47.870, True, 1.993, 0.145724
2023/06/24 00:01:48.374, True, 2.317, 0.144579
2023/06/24 00:01:48.870, True, 1.685, 0.143816
2023/06/24 00:01:49.374, True, 1.989, 0.146029
2023/06/24 00:01:49.877, True, 1.990, 0.143282
2023/06/24 00:01:50.374, True, 2.022, 0.142290
2023/06/24 00:01:50.878, True, 1.990, 0.142824
2023/06/24 00:01:51.382, True, 1.990, 0.143511
2023/06/24 00:01:51.878, True, 2.021, 0.144503
2023/06/24 00:01:52.382, True, 1.990, 0.145418
2023/06/24 00:01:52.886, True, 1.658, 0.144503
2023/06/24 00:01:53.382, True, 2.022, 0.144732
2023/06/24 00:01:53.886, True, 1.990, 0.145495
2023/06/24 00:01:54.390, True, 1.658, 0.145342
2023/06/24 00:01:54.894, True, 1.990, 0.143740
2023/06/24 00:01:55.390, True, 2.022, 0.143206
2023/06/24 00:01:55.894, True, 1.990, 0.143206
2023/06/24 00:01:56.398, True, 1.991, 0.144732
2023/06/24 00:01:56.894, True, 2.021, 0.143206
2023/06/24 00:01:57.397, True, 1.990, 0.146181
2023/06/24 00:01:57.894, True, 2.022, 0.144503
2023/06/24 00:01:58.397, True, 1.990, 0.145876
2023/06/24 00:01:58.902, True, 1.990, 0.145113
2023/06/24 00:01:59.398, True, 2.021, 0.143511
2023/06/24 00:01:59.902, True, 1.992, 0.143435
2023/06/24 00:02:00.406, True, 1.987, 0.144274
2023/06/24 00:02:00.901, True, 2.022, 0.143587
2023/06/24 00:02:01.406, True, 1.992, 0.143511
2023/06/24 00:02:01.910, True, 1.987, 0.144121
2023/06/24 00:02:02.405, True, 1.685, 0.144579
2023/06/24 00:02:02.910, True, 2.324, 0.143053
2023/06/24 00:02:03.413, True, 1.990, 0.144198
2023/06/24 00:02:03.918, True, 1.656, 0.143282
2023/06/24 00:02:04.414, True, 2.023, 0.145113
2023/06/24 00:02:04.918, True, 1.991, 0.141756
2023/06/24 00:02:05.421, True, 1.987, 0.143130
2023/06/24 00:02:05.918, True, 2.022, 0.143664
2023/06/24 00:02:06.422, True, 1.993, 0.142138
2023/06/24 00:02:06.926, True, 1.987, 0.142519
2023/06/24 00:02:07.422, True, 2.020, 0.142901
2023/06/24 00:02:07.926, True, 1.990, 0.141680
2023/06/24 00:02:08.430, True, 1.993, 0.143206
2023/06/24 00:02:08.926, True, 2.022, 0.141527
2023/06/24 00:02:09.430, True, 1.985, 0.141909
2023/06/24 00:02:09.934, True, 1.990, 0.143130
2023/06/24 00:02:10.438, True, 1.989, 0.143587
2023/06/24 00:02:10.934, True, 2.022, 0.140688
2023/06/24 00:02:11.438, True, 1.990, 0.142596
2023/06/24 00:02:11.942, True, 1.990, 0.141756
2023/06/24 00:02:12.438, True, 1.685, 0.141985
2023/06/24 00:02:12.942, True, 1.990, 0.143893
2023/06/24 00:02:13.438, True, 2.022, 0.144121
2023/06/24 00:02:13.942, True, 1.990, 0.142443
2023/06/24 00:02:14.446, True, 1.989, 0.142290
2023/06/24 00:02:14.942, True, 2.023, 0.140459
2023/06/24 00:02:15.446, True, 1.988, 0.145495
2023/06/24 00:02:15.950, True, 1.990, 0.143893
2023/06/24 00:02:16.446, True, 1.685, 0.145571
2023/06/24 00:02:16.950, True, 1.989, 0.143130
2023/06/24 00:02:17.454, True, 1.990, 0.141451
2023/06/24 00:02:17.950, True, 2.022, 0.143816
2023/06/24 00:02:18.454, True, 1.990, 0.142443
2023/06/24 00:02:18.958, True, 1.992, 0.143893
2023/06/24 00:02:19.454, True, 2.019, 0.142367
2023/06/24 00:02:19.958, True, 1.990, 0.142443
2023/06/24 00:02:20.462, True, 1.989, 0.143587
2023/06/24 00:02:20.958, True, 2.022, 0.141451
2023/06/24 00:02:21.462, True, 1.990, 0.143664
2023/06/24 00:02:21.966, True, 1.990, 0.142901
2023/06/24 00:02:22.462, True, 2.022, 0.142519
2023/06/24 00:02:22.966, True, 1.990, 0.143664
2023/06/24 00:02:23.470, True, 1.990, 0.143053
2023/06/24 00:02:23.966, True, 2.022, 0.139467
2023/06/24 00:02:24.470, True, 1.990, 0.143587
2023/06/24 00:02:24.973, True, 1.992, 0.142214
2023/06/24 00:02:25.470, True, 2.019, 0.141985
2023/06/24 00:02:25.974, True, 1.989, 0.140078
2023/06/24 00:02:26.478, True, 1.658, 0.142596
2023/06/24 00:02:26.974, True, 2.022, 0.141985
2023/06/24 00:02:27.478, True, 1.990, 0.143511
2023/06/24 00:02:27.981, True, 1.990, 0.140841
2023/06/24 00:02:28.478, True, 2.022, 0.139086
2023/06/24 00:02:28.982, True, 1.990, 0.142290
2023/06/24 00:02:29.486, True, 1.992, 0.140307
2023/06/24 00:02:29.982, True, 2.019, 0.141604
2023/06/24 00:02:30.486, True, 1.989, 0.140307
2023/06/24 00:02:30.990, True, 1.990, 0.142061
2023/06/24 00:02:31.486, True, 1.685, 0.142214
2023/06/24 00:02:31.990, True, 1.990, 0.141909
2023/06/24 00:02:32.494, True, 1.990, 0.140078
2023/06/24 00:02:32.990, True, 2.022, 0.141604
2023/06/24 00:02:33.494, True, 1.990, 0.143816
2023/06/24 00:02:33.998, True, 1.990, 0.142214
2023/06/24 00:02:34.494, True, 2.022, 0.143511
2023/06/24 00:02:34.997, True, 1.989, 0.140993
2023/06/24 00:02:35.502, True, 1.990, 0.142443
2023/06/24 00:02:35.998, True, 1.685, 0.142596
2023/06/24 00:02:36.502, True, 1.990, 0.142138
2023/06/24 00:02:36.998, True, 2.022, 0.141070
2023/06/24 00:02:37.501, True, 1.990, 0.141222
2023/06/24 00:02:38.005, True, 1.990, 0.139696
2023/06/24 00:02:38.502, True, 1.687, 0.142138
2023/06/24 00:02:39.006, True, 1.987, 0.142596
2023/06/24 00:02:39.510, True, 1.990, 0.140383
2023/06/24 00:02:40.005, True, 2.022, 0.143130
2023/06/24 00:02:40.510, True, 1.658, 0.140307
2023/06/24 00:02:41.014, True, 1.990, 0.141909
2023/06/24 00:02:41.510, True, 1.685, 0.141146
2023/06/24 00:02:42.013, True, 1.990, 0.142367
2023/06/24 00:02:42.518, True, 1.990, 0.139315
2023/06/24 00:02:43.013, True, 2.025, 0.141451
2023/06/24 00:02:43.518, True, 1.987, 0.140307
2023/06/24 00:02:44.022, True, 1.990, 0.141222
2023/06/24 00:02:44.518, True, 2.022, 0.141833
2023/06/24 00:02:45.021, True, 1.658, 0.140383
2023/06/24 00:02:45.526, True, 1.990, 0.140459
2023/06/24 00:02:46.022, True, 2.022, 0.142061
2023/06/24 00:02:46.526, True, 1.990, 0.141299
2023/06/24 00:02:47.030, True, 1.990, 0.140764
2023/06/24 00:02:47.526, True, 2.021, 0.139696
2023/06/24 00:02:48.030, True, 1.992, 0.143130
2023/06/24 00:02:48.534, True, 1.987, 0.142138
2023/06/24 00:02:49.030, True, 2.021, 0.141833
2023/06/24 00:02:49.534, True, 1.990, 0.139925
2023/06/24 00:02:50.038, True, 1.659, 0.140917
2023/06/24 00:02:50.534, True, 2.020, 0.143511
2023/06/24 00:02:51.038, True, 1.991, 0.142748
2023/06/24 00:02:51.542, True, 1.657, 0.139086
2023/06/24 00:02:52.037, True, 2.025, 0.142443
2023/06/24 00:02:52.542, True, 1.988, 0.141375
2023/06/24 00:02:53.046, True, 1.991, 0.141756
2023/06/24 00:02:53.542, True, 2.019, 0.139696
2023/06/24 00:02:54.046, True, 1.990, 0.141680
2023/06/24 00:02:54.550, True, 1.992, 0.140230
2023/06/24 00:02:55.046, True, 2.019, 0.141146
2023/06/24 00:02:55.549, True, 1.990, 0.141527
2023/06/24 00:02:56.054, True, 1.990, 0.140688
2023/06/24 00:02:56.550, True, 2.022, 0.141299
2023/06/24 00:02:57.054, True, 1.990, 0.140841
2023/06/24 00:02:57.557, True, 1.989, 0.140536
2023/06/24 00:02:58.054, True, 2.022, 0.141680
2023/06/24 00:02:58.558, True, 1.990, 0.141375
2023/06/24 00:02:59.062, True, 1.990, 0.139620
2023/06/24 00:02:59.557, True, 1.685, 0.141833
2023/06/24 00:03:00.062, True, 1.993, 0.142290
2023/06/24 00:03:00.565, True, 1.986, 0.141756
2023/06/24 00:03:01.070, True, 1.992, 0.139773
2023/06/24 00:03:01.566, True, 2.020, 0.141756
2023/06/24 00:03:02.069, True, 1.991, 0.140002
2023/06/24 00:03:02.574, True, 1.988, 0.140536
2023/06/24 00:03:03.070, True, 1.685, 0.139467
2023/06/24 00:03:03.574, True, 1.990, 0.140841
2023/06/24 00:03:04.078, True, 1.990, 0.139467
2023/06/24 00:03:04.574, True, 2.022, 0.141451
2023/06/24 00:03:05.078, True, 1.990, 0.139696
2023/06/24 00:03:05.582, True, 1.990, 0.140078
2023/06/24 00:03:06.077, True, 2.022, 0.139696
2023/06/24 00:03:06.582, True, 1.992, 0.141909
2023/06/24 00:03:07.086, True, 1.987, 0.140307
2023/06/24 00:03:07.582, True, 2.024, 0.140841
2023/06/24 00:03:08.086, True, 1.987, 0.139696
2023/06/24 00:03:08.590, True, 1.658, 0.140841
2023/06/24 00:03:09.086, True, 2.022, 0.137560
2023/06/24 00:03:09.590, True, 1.989, 0.138857
2023/06/24 00:03:10.094, True, 1.990, 0.140154
2023/06/24 00:03:10.590, True, 1.684, 0.141527
2023/06/24 00:03:11.094, True, 1.990, 0.137713
2023/06/24 00:03:11.598, True, 1.989, 0.140993
2023/06/24 00:03:12.094, True, 2.022, 0.140688
2023/06/24 00:03:12.598, True, 1.989, 0.140459
2023/06/24 00:03:13.101, True, 1.990, 0.142214
2023/06/24 00:03:13.598, True, 1.685, 0.140078
2023/06/24 00:03:14.102, True, 1.990, 0.140002
2023/06/24 00:03:14.606, True, 1.990, 0.137789
2023/06/24 00:03:15.102, True, 2.022, 0.140002
2023/06/24 00:03:15.606, True, 1.990, 0.139086
2023/06/24 00:03:16.110, True, 1.659, 0.139620
2023/06/24 00:03:16.606, True, 2.020, 0.138933
2023/06/24 00:03:17.110, True, 1.990, 0.139391
2023/06/24 00:03:17.614, True, 1.990, 0.139620
2023/06/24 00:03:18.109, True, 2.022, 0.141146
2023/06/24 00:03:18.614, True, 1.991, 0.140307
2023/06/24 00:03:19.118, True, 1.989, 0.138705
2023/06/24 00:03:19.614, True, 1.688, 0.141909
2023/06/24 00:03:20.118, True, 1.986, 0.138705
2023/06/24 00:03:20.622, True, 1.660, 0.140917
2023/06/24 00:03:21.118, True, 2.020, 0.142596
2023/06/24 00:03:21.622, True, 1.990, 0.138247
2023/06/24 00:03:22.126, True, 1.992, 0.139086
2023/06/24 00:03:22.621, True, 1.686, 0.140307
2023/06/24 00:03:23.126, True, 1.986, 0.140688
2023/06/24 00:03:23.630, True, 1.990, 0.138933
2023/06/24 00:03:24.126, True, 2.022, 0.140230
2023/06/24 00:03:24.630, True, 1.990, 0.140383
2023/06/24 00:03:25.134, True, 1.658, 0.138170
2023/06/24 00:03:25.630, True, 2.024, 0.139925
2023/06/24 00:03:26.134, True, 1.987, 0.140230
2023/06/24 00:03:26.637, True, 1.993, 0.141527
2023/06/24 00:03:27.141, True, 1.986, 0.140230
2023/06/24 00:03:27.637, True, 2.022, 0.137789
2023/06/24 00:03:28.141, True, 1.990, 0.139467
2023/06/24 00:03:28.646, True, 1.991, 0.139315
2023/06/24 00:03:29.142, True, 2.020, 0.139315
2023/06/24 00:03:29.645, True, 1.658, 0.139620
2023/06/24 00:03:30.150, True, 1.989, 0.139773
2023/06/24 00:03:30.646, True, 2.022, 0.140383
2023/06/24 00:03:31.150, True, 1.658, 0.139544
2023/06/24 00:03:31.653, True, 1.989, 0.139773
2023/06/24 00:03:32.150, True, 2.022, 0.140688
2023/06/24 00:03:32.654, True, 1.993, 0.139620
2023/06/24 00:03:33.157, True, 1.986, 0.137865
2023/06/24 00:03:33.653, True, 2.022, 0.140764
2023/06/24 00:03:34.158, True, 1.990, 0.138857
2023/06/24 00:03:34.662, True, 1.989, 0.139162
2023/06/24 00:03:35.158, True, 2.022, 0.141299
2023/06/24 00:03:35.662, True, 1.990, 0.139315
2023/06/24 00:03:36.165, True, 1.660, 0.139773
2023/06/24 00:03:36.662, True, 2.020, 0.138857
2023/06/24 00:03:37.166, True, 1.989, 0.138247
2023/06/24 00:03:37.670, True, 1.990, 0.138323
2023/06/24 00:03:38.174, True, 1.988, 0.140993
2023/06/24 00:03:38.670, True, 2.022, 0.140764
2023/06/24 00:03:39.173, True, 1.991, 0.137026
2023/06/24 00:03:39.670, True, 2.021, 0.140917
2023/06/24 00:03:40.173, True, 1.990, 0.138323
2023/06/24 00:03:40.678, True, 1.988, 0.140459
2023/06/24 00:03:41.182, True, 1.992, 0.138399
2023/06/24 00:03:41.678, True, 2.020, 0.140459
2023/06/24 00:03:42.182, True, 1.990, 0.139467
2023/06/24 00:03:42.686, True, 1.658, 0.140459
2023/06/24 00:03:43.182, True, 2.022, 0.137713
2023/06/24 00:03:43.686, True, 1.989, 0.139239
2023/06/24 00:03:44.190, True, 1.993, 0.139086
2023/06/24 00:03:44.686, True, 2.018, 0.137942
2023/06/24 00:03:45.190, True, 1.991, 0.139162
2023/06/24 00:03:45.694, True, 1.656, 0.142596
2023/06/24 00:03:46.189, True, 2.022, 0.137942
2023/06/24 00:03:46.694, True, 1.990, 0.139925
2023/06/24 00:03:47.198, True, 1.658, 0.137331
2023/06/24 00:03:47.694, True, 2.022, 0.139315
2023/06/24 00:03:48.198, True, 1.992, 0.138933
2023/06/24 00:03:48.702, True, 1.656, 0.139162
2023/06/24 00:03:49.198, True, 2.022, 0.139773
2023/06/24 00:03:49.702, True, 1.658, 0.138247
2023/06/24 00:03:50.206, True, 1.990, 0.138323
2023/06/24 00:03:50.702, True, 2.022, 0.137636
2023/06/24 00:03:51.206, True, 1.658, 0.140078
2023/06/24 00:03:51.702, True, 2.022, 0.138781
2023/06/24 00:03:52.206, True, 1.989, 0.139544
2023/06/24 00:03:52.710, True, 1.658, 0.140383
2023/06/24 00:03:53.206, True, 2.022, 0.140230
2023/06/24 00:03:53.709, True, 1.989, 0.139239
2023/06/24 00:03:54.214, True, 1.990, 0.141070
2023/06/24 00:03:54.710, True, 2.021, 0.138552
2023/06/24 00:03:55.214, True, 1.990, 0.139544
2023/06/24 00:03:55.718, True, 1.990, 0.140154
2023/06/24 00:03:56.214, True, 2.022, 0.137255
2023/06/24 00:03:56.718, True, 1.990, 0.138476
2023/06/24 00:03:57.222, True, 1.658, 0.138476
2023/06/24 00:03:57.718, True, 2.022, 0.136568
2023/06/24 00:03:58.222, True, 1.658, 0.139162
2023/06/24 00:03:58.726, True, 1.990, 0.139849
2023/06/24 00:03:59.222, True, 2.022, 0.137331
2023/06/24 00:03:59.726, True, 1.990, 0.135729
2023/06/24 00:04:00.222, True, 2.022, 0.139391
2023/06/24 00:04:00.726, True, 1.658, 0.138781
2023/06/24 00:04:01.230, True, 1.990, 0.136645
2023/06/24 00:04:01.726, True, 2.022, 0.140002
2023/06/24 00:04:02.230, True, 1.990, 0.138476
2023/06/24 00:04:02.734, True, 1.990, 0.138018
2023/06/24 00:04:03.230, True, 2.022, 0.135424
2023/06/24 00:04:03.733, True, 1.989, 0.138476
2023/06/24 00:04:04.238, True, 1.990, 0.139162
2023/06/24 00:04:04.734, True, 2.022, 0.136797
2023/06/24 00:04:05.238, True, 1.990, 0.137102
2023/06/24 00:04:05.742, True, 1.990, 0.140383
2023/06/24 00:04:06.238, True, 2.022, 0.138399
2023/06/24 00:04:06.742, True, 1.990, 0.139925
2023/06/24 00:04:07.245, True, 1.990, 0.139086
2023/06/24 00:04:07.742, True, 2.022, 0.140230
2023/06/24 00:04:08.246, True, 1.989, 0.140307
2023/06/24 00:04:08.750, True, 1.990, 0.138094
2023/06/24 00:04:09.246, True, 2.022, 0.139239